Weather Roundup
Issued by NWS Springfield, MO

Home | Current Version | Previous Version | Text Only | Print | Product List | Glossary On
Versions: 1 2 3 4 5 6 7 8 9 10 11 12 13 14 15 16 17 18 19 20 21 22 23 24 25 26 27 28 29 30 31 32 33 34 35 36 37 38 39 40 41 42 43 44 45 46 47 48 49 50
000
NZUS99 KSGF 280359
HRRSGF

HOURLY WEATHER
NATIONAL WEATHER SERVICE SPRINGFIELD MO
1000 PM CST THU NOV 27 2014

......SGF CWA......

CITY           SKY/WX    TMP DP  RH WIND       PRES   REMARKS
SPRINGFIELD    CLEAR     34  22  61 S10       30.31F WCI  26
JOPLIN         CLEAR     34  20  56 SE5       30.34S WCI  30
WEST PLAINS    PTCLDY    33  20  58 SE5       30.39F WCI  29
ROLLA          CLOUDY    29  23  78 E8        30.35F WCI  21
OSAGE BEACH    MOCLDY    30  21  69 SE5       30.37S WCI  25

......SURROUNDING SGF CWA......

CITY           SKY/WX    TMP DP  RH WIND       PRES   REMARKS
CHANUTE        CLEAR     31  24  75 SE8       30.29F WCI  23
PARSONS        PTCLDY    36  25  64 SE5       30.30F WCI  32
COFFEYVILLE    PTCLDY    33  25  72 SE6       30.30F WCI  28
EMPORIA        CLEAR     31  21  66 SE13      30.22F WCI  21
SILOAM SPRINGS CLEAR     34  19  55 SE6       30.34F WCI  29
HARRISON AR    CLEAR     31  23  72 SE9       30.35F WCI  23
NEAR YELLVILLE CLEAR     28  21  74 CALM      30.40F

......KANSAS AND MISSOURI......

CITY           SKY/WX    TMP DP  RH WIND       PRES   REMARKS
KANSAS CTY INT CLEAR     28  22  78 SE10      30.29F WCI  19
DOWNTOWN KC    CLEAR     33  23  66 E8        30.31F WCI  26
COLUMBIA       CLOUDY    31  24  75 SE7       30.36F WCI  24
SEDALIA        PTCLDY    30  23  75 SE7       30.36S WCI  23
ST JOSEPH      CLEAR     27  22  81 SE12      30.28F WCI  17
ST LOUIS       MOCLDY    27  19  72 E6        30.44F WCI  20
SPIRIT OF STL  CLOUDY    28  20  71 CALM      30.43F
KIRKSVILLE     MOCLDY    20  14  77 SE9       30.36F WCI   9
WICHITA        PTCLDY    40  21  46 S16       30.19F WCI  31
TOPEKA         CLEAR     34  22  61 SE6       30.27F WCI  29
OLATHE         CLEAR     29  23  78 SE7       30.28F WCI  22

......TENNESSEE......

CITY           SKY/WX    TMP DP  RH WIND       PRES   REMARKS
MEMPHIS        CLEAR     34  27  75 S3        30.47R
NASHVILLE      MOCLDY    30  20  66 CALM      30.49S

......ARKANSAS.......

CITY           SKY/WX    TMP DP  RH WIND       PRES   REMARKS
FAYETTEVILLE   CLEAR     27  23  85 CALM      30.35S
FT SMITH       CLEAR     35  28  75 NE5       30.39F WCI  31
LITTLE ROCK    FAIR      39  28  64 CALM      30.47S

......OKLAHOMA.......

CITY           SKY/WX    TMP DP  RH WIND       PRES   REMARKS
TULSA          MOCLDY    41  25  53 S13       30.30F
PONCA CITY     PTCLDY    41  22  46 S7        30.25F
MCALESTER      PTCLDY    43  24  47 SE7       30.36F
OKLAHOMA CITY  MOCLDY    37  25  61 S8        30.29F WCI  31

......IOWA............

CITY           SKY/WX    TMP DP  RH WIND       PRES   REMARKS
DES MOINES     MOCLDY    15   4  61 SE8       30.31F WCI   4
QUAD CITIES    PTCLDY    13   6  74 SW3       30.41S

......ILLINOIS........

CITY           SKY/WX    TMP DP  RH WIND       PRES   REMARKS
QUINCY         CLOUDY    18   7  62 E7        30.41F WCI   9
CHICAGO        PTCLDY    15   9  76 CALM      30.40R



USA.gov is the U.S. government's official web portal to all federal, state and local government web resources and services.